Destin, Florida, United States (32540)
Lat: 30.39N, Lon: 86.5W
Wx Zone: FLZ006
Local Info
Past Weather Observations for Friday, May 22, 2015

NOTE: This archive is for the closest National Weather Service station to Destin. Information may differ from the station used for current weather conditions.

Click here for Long-term Archive

Time Weather Temperature Dewpoint Humidity Pressure Winds Precip Visibility
23:53
Clear
75°F / 24°C 57°F / 14°C 54% 30.18 in
(1022 mb)
NE 4.6 mph
(NE 7 kph)
- 10SM
22:53
Clear
75°F / 24°C 57°F / 14°C 54% 30.18 in
(1022 mb)
NE 5.8 mph
(NE 9 kph)
- 10SM
21:53
Clear
75°F / 24°C 57°F / 14°C 54% 30.18 in
(1022 mb)
NNE 3.5 mph
(NNE 6 kph)
- 10SM
20:53
Clear
77°F / 25°C 57°F / 14°C 51% 30.18 in
(1022 mb)
Calm - 10SM
19:53
Clear
77°F / 25°C 63°F / 17°C 61% 30.15 in
(1021 mb)
NE 3.5 mph
(NE 6 kph)
- 10SM
18:53
Clear
81°F / 27°C 63°F / 17°C 54% 30.15 in
(1021 mb)
Calm - 10SM
17:53
Clear
81°F / 27°C 61°F / 16°C 51% 30.12 in
(1020 mb)
SSW 3.5 mph
(SSW 6 kph)
- 10SM
16:53
Clear
82°F / 28°C 61°F / 16°C 48% 30.12 in
(1020 mb)
SSW 5.8 mph
(SSW 9 kph)
- 10SM
15:53
Clear
82°F / 28°C 57°F / 14°C 42% 30.12 in
(1020 mb)
SW 6.9 mph
(SW 11 kph)
- 10SM
14:53
Clear
84°F / 29°C 57°F / 14°C 40% 30.12 in
(1020 mb)
Variable 4.6 mph
(Variable 7 kph)
- 10SM
13:53
Clear
88°F / 31°C 54°F / 12°C 31% 30.12 in
(1020 mb)
ENE 6.9 mph
(ENE 11 kph)
- 10SM
12:53
Clear
84°F / 29°C 54°F / 12°C 35% 30.15 in
(1021 mb)
N 6.9 mph
(N 11 kph)
- 10SM
11:53
Clear
81°F / 27°C 54°F / 12°C 39% 30.15 in
(1021 mb)
N 9.2 mph
(N 15 kph)
- 10SM
10:53
Clear
79°F / 26°C 55°F / 13°C 45% 30.15 in
(1021 mb)
N 9.2 mph
(N 15 kph)
- 10SM
09:53
Clear
75°F / 24°C 55°F / 13°C 50% 30.18 in
(1022 mb)
N 11.5 mph
(N 19 kph)
- 10SM
08:53
Clear
72°F / 22°C 55°F / 13°C 57% 30.18 in
(1022 mb)
NE 8.1 mph
(NE 13 kph)
- 10SM
07:53
Partly Cloudy
70°F / 21°C 57°F / 14°C 64% 30.18 in
(1022 mb)
N 9.2 mph
(N 15 kph)
- 10SM
06:53
Clear
66°F / 19°C 57°F / 14°C 73% 30.15 in
(1021 mb)
NE 10.4 mph
(NE 17 kph)
- 10SM
05:53
Clear
66°F / 19°C 59°F / 15°C 78% 30.12 in
(1020 mb)
NNE 10.4 mph
(NNE 17 kph)
- 10SM
04:53
Partly Cloudy
68°F / 20°C 61°F / 16°C 78% 30.12 in
(1020 mb)
N 6.9 mph
(N 11 kph)
- 10SM
03:53
Partly Cloudy
70°F / 21°C 63°F / 17°C 78% 30.09 in
(1019 mb)
NNE 8.1 mph
(NNE 13 kph)
- 10SM
03:50
Partly Cloudy
70°F / 21°C 63°F / 17°C 78% 30.09 in
(1019 mb)
N 12.7 mph
(N 20 kph)
- 10SM
02:53
Mostly Cloudy
72°F / 22°C 64°F / 18°C 78% 30.06 in
(1018 mb)
N 8.1 mph
(N 13 kph)
- 10SM
02:49
Mostly Cloudy
72°F / 22°C 64°F / 18°C 78% 30.06 in
(1018 mb)
N 10.4 mph
(N 17 kph)
- 10SM
01:53
Clear
73°F / 23°C 64°F / 18°C 74% 30.04 in
(1017 mb)
N 11.5 mph
(N 19 kph)
- 10SM
00:53
Clear
73°F / 23°C 66°F / 19°C 78% 30.04 in
(1017 mb)
N 11.5 mph
(N 19 kph)
- 10SM
Time Weather Temperature Dewpoint Humidity Pressure Winds Precip Visibility


Weather for websites

WeatherForYou.com, LLC is not responsible for any damages or problems caused by this service. Current weather conditions are obtained from the closest station including government and personal stations which may have varying degrees of accuracy. Weather forecasts are derived from the NOAA NDFD. Like all things, this site belongs to Jesus Christ... He just trusts us to maintain it. If you have any questions or comments email webmaster@weatherforyou.com

Copyright © 2015, WeatherForYou.com LLC. All rights reserved.